| time (UTC) | temp F | wind direction | speed MPH | gust MPH | rain 1hr in | rain 24hr in | rain mn in | humidity % | barometer mb |
| 20260506085502 | 64 | 142 | 0.0 | 6.0 | 0.00 | 0.00 | 0.00 | 76 | 1012.2 |
| 20260506085009 | 64 | 163 | 2.0 | 9.0 | 0.00 | 0.00 | 0.00 | 76 | 1012.2 |
| 20260506084512 | 64 | 158 | 1.0 | 10.0 | 0.00 | 0.00 | 0.00 | 76 | 1012.2 |
| 20260506084003 | 64 | 153 | 2.0 | 10.0 | 0.00 | 0.00 | 0.00 | 76 | 1012.3 |
| 20260506083508 | 64 | 169 | 1.0 | 8.0 | 0.00 | 0.00 | 0.00 | 76 | 1012.3 |
| 20260506083003 | 64 | 198 | 1.0 | 5.0 | 0.00 | 0.00 | 0.00 | 76 | 1012.4 |
| 20260506082503 | 64 | 201 | 0.0 | 5.0 | 0.00 | 0.00 | 0.00 | 76 | 1012.4 |
| 20260506082007 | 64 | 154 | 1.0 | 5.0 | 0.00 | 0.00 | 0.00 | 75 | 1012.5 |
| 20260506081507 | 64 | 203 | 0.0 | 3.0 | 0.00 | 0.00 | 0.00 | 75 | 1012.5 |
| 20260506081003 | 64 | 132 | 0.0 | 9.0 | 0.00 | 0.00 | 0.00 | 75 | 1012.4 |
| 20260506080511 | 64 | 138 | 2.0 | 9.0 | 0.00 | 0.00 | 0.00 | 75 | 1012.4 |
| 20260506073509 | 65 | 117 | 1.0 | 14.0 | 0.00 | 0.00 | 0.00 | 74 | 1012.5 |
| 20260506073004 | 65 | 107 | 3.0 | 14.0 | 0.00 | 0.00 | 0.00 | 73 | 1012.4 |
| 20260506072513 | 65 | 165 | 1.0 | 9.0 | 0.00 | 0.00 | 0.00 | 73 | 1012.4 |
| 20260506072010 | 65 | 207 | 1.0 | 6.0 | 0.00 | 0.00 | 0.00 | 73 | 1012.5 |
| 20260506071503 | 65 | 101 | 1.0 | 6.0 | 0.00 | 0.00 | 0.00 | 72 | 1012.5 |
| 20260506071008 | 65 | 198 | 1.0 | 6.0 | 0.00 | 0.00 | 0.00 | 72 | 1012.5 |
| 20260506070506 | 65 | 233 | 2.0 | 6.0 | 0.00 | 0.00 | 0.00 | 72 | 1012.5 |
| 20260506062511 | 66 | 155 | 2.0 | 9.0 | 0.00 | 0.00 | 0.00 | 71 | 1012.8 |
| 20260506062009 | 66 | 166 | 2.0 | 9.0 | 0.00 | 0.00 | 0.00 | 70 | 1012.9 |
| 20260506061504 | 66 | 157 | 3.0 | 7.0 | 0.00 | 0.00 | 0.00 | 70 | 1012.8 |
| 20260506061011 | 66 | 126 | 1.0 | 9.0 | 0.00 | 0.00 | 0.00 | 70 | 1012.7 |
| 20260506060507 | 67 | 199 | 2.0 | 9.0 | 0.00 | 0.00 | 0.00 | 70 | 1012.8 |
| 20260506051009 | 68 | 128 | 3.0 | 9.0 | 0.00 | 0.00 | 0.00 | 68 | 1013.2 |
| 20260506050508 | 68 | 153 | 2.0 | 8.0 | 0.00 | 0.00 | 0.00 | 68 | 1013.1 |
| 20260506045004 | 68 | 212 | 2.0 | 7.0 | 0.00 | 0.00 | 0.00 | 67 | 1013.3 |
| 20260506044511 | 68 | 180 | 1.0 | 7.0 | 0.00 | 0.00 | 0.00 | 66 | 1013.4 |
| 20260506044017 | 68 | 158 | 2.0 | 7.0 | 0.00 | 0.00 | 0.00 | 66 | 1013.4 |
| 20260506043503 | 68 | 131 | 1.0 | 6.0 | 0.00 | 0.00 | 0.00 | 65 | 1013.5 |
| 20260506043012 | 69 | 103 | 2.0 | 9.0 | 0.00 | 0.00 | 0.00 | 65 | 1013.5 |
| 20260506042506 | 69 | 344 | 1.0 | 9.0 | 0.00 | 0.00 | 0.00 | 64 | 1013.5 |
| 20260506042007 | 69 | 117 | 3.0 | 9.0 | 0.00 | 0.00 | 0.00 | 64 | 1013.4 |
| 20260506041525 | 69 | 169 | 2.0 | 7.0 | 0.00 | 0.00 | 0.00 | 63 | 1013.4 |
| 20260506041009 | 70 | 145 | 1.0 | 7.0 | 0.00 | 0.00 | 0.00 | 62 | 1013.5 |
| 20260506040502 | 70 | 101 | 1.0 | 7.0 | 0.00 | 0.00 | 0.00 | 62 | 1013.5 |
| 20260506040014 | 70 | 206 | 2.0 | 7.0 | 0.00 | 0.00 | 0.00 | 61 | 1013.4 |
| 20260506035508 | 70 | 139 | 1.0 | 12.0 | 0.00 | 0.00 | 0.00 | 61 | 1013.4 |
| 20260506035004 | 70 | 189 | 0.0 | 13.0 | 0.00 | 0.00 | 0.00 | 60 | 1013.3 |
| 20260506034515 | 70 | 156 | 4.0 | 13.0 | 0.00 | 0.00 | 0.00 | 60 | 1013.4 |
| 20260506034009 | 71 | 112 | 1.0 | 9.0 | 0.00 | 0.00 | 0.00 | 60 | 1013.3 |
| 20260506033503 | 71 | 211 | 1.0 | 9.0 | 0.00 | 0.00 | 0.00 | 60 | 1013.3 |
| 20260506033017 | 71 | 71 | 3.0 | 8.0 | 0.00 | 0.00 | 0.00 | 60 | 1013.4 |
| 20260506032513 | 71 | 181 | 2.0 | 8.0 | 0.00 | 0.00 | 0.00 | 59 | 1013.3 |
| 20260506032007 | 71 | 65 | 2.0 | 7.0 | 0.00 | 0.00 | 0.00 | 60 | 1013.4 |
| 20260506031523 | 71 | 142 | 1.0 | 8.0 | 0.00 | 0.00 | 0.00 | 59 | 1013.4 |
| 20260506031009 | 71 | 107 | 2.0 | 8.0 | 0.00 | 0.00 | 0.00 | 59 | 1013.3 |
| 20260506030508 | 71 | 186 | 2.0 | 6.0 | 0.00 | 0.00 | 0.00 | 58 | 1013.3 |
| 20260506030023 | 71 | 200 | 1.0 | 5.0 | 0.00 | 0.00 | 0.00 | 58 | 1013.3 |
| 20260506025508 | 71 | 148 | 0.0 | 4.0 | 0.00 | 0.00 | 0.00 | 58 | 1013.3 |
| 20260506025009 | 71 | 136 | 0.0 | 7.0 | 0.00 | 0.00 | 0.00 | 58 | 1013.3 |
| 20260506024520 | 71 | 111 | 2.0 | 7.0 | 0.00 | 0.00 | 0.00 | 58 | 1013.3 |
| 20260506024010 | 71 | 175 | 0.0 | 4.0 | 0.00 | 0.00 | 0.00 | 57 | 1013.4 |
| 20260506023505 | 71 | 162 | 1.0 | 6.0 | 0.00 | 0.00 | 0.00 | 57 | 1013.4 |
| 20260506023018 | 72 | 119 | 0.0 | 6.0 | 0.00 | 0.00 | 0.00 | 57 | 1013.3 |
| 20260506022509 | 72 | 192 | 1.0 | 8.0 | 0.00 | 0.00 | 0.00 | 57 | 1013.4 |
| 20260506022004 | 72 | 143 | 1.0 | 8.0 | 0.00 | 0.00 | 0.00 | 56 | 1013.3 |
| 20260506021520 | 72 | 186 | 0.0 | 5.0 | 0.00 | 0.00 | 0.00 | 56 | 1013.3 |
| 20260506021010 | 72 | 163 | 1.0 | 7.0 | 0.00 | 0.00 | 0.00 | 55 | 1013.3 |
| 20260506020510 | 72 | 110 | 2.0 | 9.0 | 0.00 | 0.00 | 0.00 | 55 | 1013.3 |
| 20260506020024 | 72 | 163 | 2.0 | 9.0 | 0.00 | 0.00 | 0.00 | 55 | 1013.3 |
| 20260506015510 | 72 | 145 | 2.0 | 6.0 | 0.00 | 0.00 | 0.00 | 54 | 1013.2 |
| 20260506015006 | 73 | 127 | 0.0 | 5.0 | 0.00 | 0.00 | 0.00 | 54 | 1013.2 |
| 20260506014532 | 73 | 136 | 1.0 | 8.0 | 0.00 | 0.00 | 0.00 | 54 | 1013.1 |
| 20260506014009 | 73 | 114 | 1.0 | 8.0 | 0.00 | 0.00 | 0.00 | 54 | 1013.1 |
| 20260506013506 | 73 | 71 | 0.0 | 9.0 | 0.00 | 0.00 | 0.00 | 54 | 1013.1 |
| 20260506013028 | 73 | 189 | 0.0 | 9.0 | 0.00 | 0.00 | 0.00 | 54 | 1013.0 |
| 20260506012510 | 73 | 131 | 1.0 | 8.0 | 0.00 | 0.00 | 0.00 | 53 | 1013.0 |
| 20260506012008 | 73 | 117 | 0.0 | 7.0 | 0.00 | 0.00 | 0.00 | 53 | 1012.9 |
| 20260506011528 | 74 | 184 | 0.0 | 7.0 | 0.00 | 0.00 | 0.00 | 52 | 1012.7 |
| 20260506011008 | 74 | 148 | 1.0 | 8.0 | 0.00 | 0.00 | 0.00 | 52 | 1012.7 |
| 20260506010505 | 74 | 112 | 0.0 | 8.0 | 0.00 | 0.00 | 0.00 | 51 | 1012.7 |
| 20260506010027 | 74 | 157 | 1.0 | 7.0 | 0.00 | 0.00 | 0.00 | 52 | 1012.6 |
| 20260506005510 | 74 | 150 | 1.0 | 7.0 | 0.00 | 0.00 | 0.00 | 51 | 1012.5 |
| 20260506005010 | 74 | 192 | 1.0 | 8.0 | 0.00 | 0.00 | 0.00 | 50 | 1012.5 |
| 20260506004535 | 74 | 150 | 2.0 | 8.0 | 0.00 | 0.00 | 0.00 | 50 | 1012.4 |
| 20260506004010 | 75 | 157 | 2.0 | 7.0 | 0.00 | 0.00 | 0.00 | 50 | 1012.4 |
| 20260506003507 | 75 | 173 | 1.0 | 7.0 | 0.00 | 0.00 | 0.00 | 50 | 1012.3 |
| 20260506003024 | 75 | 168 | 2.0 | 6.0 | 0.00 | 0.00 | 0.00 | 49 | 1012.2 |
| 20260506002511 | 75 | 157 | 1.0 | 6.0 | 0.00 | 0.00 | 0.00 | 49 | 1012.2 |
| 20260506002007 | 75 | 136 | 1.0 | 6.0 | 0.00 | 0.00 | 0.00 | 49 | 1012.3 |
| 20260506001524 | 75 | 175 | 0.0 | 6.0 | 0.00 | 0.00 | 0.00 | 49 | 1012.2 |
| 20260506001008 | 76 | 115 | 2.0 | 6.0 | 0.00 | 0.00 | 0.00 | 48 | 1012.2 |
| 20260506000509 | 76 | 169 | 0.0 | 5.0 | 0.00 | 0.00 | 0.00 | 48 | 1012.1 |
| 20260506000034 | 76 | 192 | 1.0 | 5.0 | 0.00 | 0.00 | 0.00 | 47 | 1012.1 |
| 20260505235511 | 76 | 189 | 0.0 | 4.0 | 0.00 | 0.00 | 0.00 | 47 | 1012.1 |
| 20260505235003 | 77 | 187 | 0.0 | 9.0 | 0.00 | 0.00 | 0.00 | 47 | 1012.1 |
| 20260505234512 | 77 | 119 | 0.0 | 9.0 | 0.00 | 0.00 | 0.00 | 46 | 1012.1 |
| 20260505234003 | 77 | 190 | 2.0 | 9.0 | 0.00 | 0.00 | 0.00 | 45 | 1012.0 |
| 20260505233506 | 77 | 169 | 2.0 | 5.0 | 0.00 | 0.00 | 0.00 | 45 | 1011.9 |
| 20260505233004 | 77 | 188 | 1.0 | 5.0 | 0.00 | 0.00 | 0.00 | 45 | 1012.0 |
| 20260505232509 | 77 | 322 | 1.0 | 8.0 | 0.00 | 0.00 | 0.00 | 45 | 1011.9 |
| 20260505232004 | 77 | 164 | 1.0 | 8.0 | 0.00 | 0.00 | 0.00 | 45 | 1011.9 |
| 20260505231506 | 77 | 150 | 1.0 | 3.0 | 0.00 | 0.00 | 0.00 | 44 | 1012.1 |
| 20260505231004 | 77 | 74 | 0.0 | 5.0 | 0.00 | 0.00 | 0.00 | 44 | 1011.9 |
| 20260505230503 | 78 | 130 | 1.0 | 4.0 | 0.00 | 0.00 | 0.00 | 44 | 1011.9 |
| 20260505230005 | 78 | 150 | 0.0 | 3.0 | 0.00 | 0.00 | 0.00 | 43 | 1011.9 |
| 20260505225506 | 78 | 183 | 0.0 | 3.0 | 0.00 | 0.00 | 0.00 | 43 | 1012.0 |
| 20260505225004 | 79 | 117 | 0.0 | 7.0 | 0.00 | 0.00 | 0.00 | 42 | 1012.0 |
| 20260505224507 | 79 | 117 | 0.0 | 7.0 | 0.00 | 0.00 | 0.00 | 42 | 1012.1 |
| 20260505224007 | 79 | 211 | 2.0 | 9.0 | 0.00 | 0.00 | 0.00 | 41 | 1012.2 |
| 20260505223505 | 79 | 123 | 2.0 | 9.0 | 0.00 | 0.00 | 0.00 | 40 | 1012.1 |
| 20260505223009 | 79 | 134 | 4.0 | 9.0 | 0.00 | 0.00 | 0.00 | 40 | 1012.0 |
| 20260505222507 | 79 | 207 | 1.0 | 5.0 | 0.00 | 0.00 | 0.00 | 41 | 1012.1 |
| 20260505222005 | 80 | 212 | 1.0 | 12.0 | 0.00 | 0.00 | 0.00 | 41 | 1012.0 |
| 20260505221508 | 80 | 138 | 2.0 | 12.0 | 0.00 | 0.00 | 0.00 | 39 | 1011.9 |
| 20260505221006 | 80 | 94 | 2.0 | 12.0 | 0.00 | 0.00 | 0.00 | 39 | 1011.8 |
| 20260505220503 | 80 | 143 | 1.0 | 9.0 | 0.00 | 0.00 | 0.00 | 38 | 1011.9 |
| 20260505220023 | 80 | 190 | 2.0 | 9.0 | 0.00 | 0.00 | 0.00 | 38 | 1011.9 |
| 20260505215510 | 80 | 100 | 1.0 | 5.0 | 0.00 | 0.00 | 0.00 | 37 | 1011.9 |
| 20260505215004 | 80 | 205 | 2.0 | 7.0 | 0.00 | 0.00 | 0.00 | 37 | 1012.0 |
| 20260505214514 | 81 | 122 | 2.0 | 9.0 | 0.00 | 0.00 | 0.00 | 35 | 1011.9 |
| 20260505214010 | 80 | 80 | 1.0 | 9.0 | 0.00 | 0.00 | 0.00 | 36 | 1011.9 |
| 20260505213502 | 80 | 179 | 1.0 | 8.0 | 0.00 | 0.00 | 0.00 | 37 | 1012.0 |
| 20260505213012 | 80 | 182 | 0.0 | 9.0 | 0.00 | 0.00 | 0.00 | 36 | 1011.9 |
| 20260505212509 | 80 | 225 | 1.0 | 10.0 | 0.00 | 0.00 | 0.00 | 34 | 1011.9 |
| 20260505212002 | 80 | 203 | 2.0 | 10.0 | 0.00 | 0.00 | 0.00 | 34 | 1012.0 |
| 20260505211512 | 81 | 159 | 2.0 | 10.0 | 0.00 | 0.00 | 0.00 | 34 | 1012.1 |
| 20260505211009 | 81 | 84 | 3.0 | 10.0 | 0.00 | 0.00 | 0.00 | 33 | 1012.0 |
| 20260505210503 | 82 | 144 | 2.0 | 9.0 | 0.00 | 0.00 | 0.00 | 35 | 1012.0 |
| 20260505210015 | 82 | 107 | 2.0 | 9.0 | 0.00 | 0.00 | 0.00 | 35 | 1012.0 |
| 20260505205515 | 82 | 111 | 4.0 | 12.0 | 0.00 | 0.00 | 0.00 | 34 | 1012.0 |
| 20260505205006 | 82 | 236 | 1.0 | 12.0 | 0.00 | 0.00 | 0.00 | 33 | 1011.9 |
| 20260505204524 | 82 | 166 | 3.0 | 9.0 | 0.00 | 0.00 | 0.00 | 33 | 1011.9 |
| 20260505204008 | 82 | 206 | 1.0 | 9.0 | 0.00 | 0.00 | 0.00 | 35 | 1011.8 |
| 20260505203502 | 82 | 159 | 2.0 | 9.0 | 0.00 | 0.00 | 0.00 | 34 | 1011.8 |
| 20260505203016 | 82 | 146 | 0.0 | 10.0 | 0.00 | 0.00 | 0.00 | 34 | 1011.8 |
| 20260505202509 | 82 | 125 | 2.0 | 10.0 | 0.00 | 0.00 | 0.00 | 33 | 1011.9 |
| 20260505202006 | 83 | 211 | 3.0 | 10.0 | 0.00 | 0.00 | 0.00 | 32 | 1011.9 |
| 20260505201517 | 83 | 101 | 3.0 | 10.0 | 0.00 | 0.00 | 0.00 | 33 | 1011.9 |
| 20260505201009 | 83 | 198 | 4.0 | 10.0 | 0.00 | 0.00 | 0.00 | 33 | 1011.9 |
| 20260505200506 | 84 | 152 | 4.0 | 11.0 | 0.00 | 0.00 | 0.00 | 35 | 1011.8 |
| 20260505200017 | 84 | 34 | 2.0 | 14.0 | 0.00 | 0.00 | 0.00 | 34 | 1011.9 |
| 20260505195511 | 84 | 177 | 1.0 | 14.0 | 0.00 | 0.00 | 0.00 | 34 | 1012.0 |
| 20260505195003 | 84 | 209 | 3.0 | 11.0 | 0.00 | 0.00 | 0.00 | 35 | 1012.1 |
| 20260505194519 | 84 | 154 | 2.0 | 11.0 | 0.00 | 0.00 | 0.00 | 34 | 1012.2 |
| 20260505194017 | 84 | 136 | 4.0 | 12.0 | 0.00 | 0.00 | 0.00 | 34 | 1012.3 |
| 20260505193503 | 84 | 195 | 2.0 | 12.0 | 0.00 | 0.00 | 0.00 | 33 | 1012.2 |
| 20260505193038 | 84 | 153 | 1.0 | 13.0 | 0.00 | 0.00 | 0.00 | 32 | 1012.4 |
| 20260505192509 | 83 | 204 | 1.0 | 13.0 | 0.00 | 0.00 | 0.00 | 34 | 1012.5 |
| 20260505192005 | 83 | 261 | 3.0 | 10.0 | 0.00 | 0.00 | 0.00 | 32 | 1012.5 |
| 20260505191519 | 83 | 186 | 2.0 | 12.0 | 0.00 | 0.00 | 0.00 | 34 | 1012.5 |
| 20260505191009 | 83 | 184 | 2.0 | 12.0 | 0.00 | 0.00 | 0.00 | 34 | 1012.6 |
| 20260505190506 | 83 | 227 | 2.0 | 12.0 | 0.00 | 0.00 | 0.00 | 34 | 1012.7 |
| 20260505190030 | 85 | 285 | 2.0 | 7.0 | 0.00 | 0.00 | 0.00 | 37 | 1012.9 |
| 20260505185515 | 84 | 121 | 3.0 | 8.0 | 0.00 | 0.00 | 0.00 | 37 | 1012.8 |
| 20260505185007 | 83 | 190 | 0.0 | 8.0 | 0.00 | 0.00 | 0.00 | 39 | 1013.0 |
| 20260505184525 | 84 | 11 | 1.0 | 7.0 | 0.00 | 0.00 | 0.00 | 33 | 1013.1 |
| 20260505184004 | 84 | 252 | 2.0 | 11.0 | 0.00 | 0.00 | 0.00 | 36 | 1013.2 |
| 20260505183507 | 83 | 204 | 3.0 | 11.0 | 0.00 | 0.00 | 0.00 | 31 | 1013.2 |
| 20260505183036 | 83 | 109 | 4.0 | 10.0 | 0.00 | 0.00 | 0.00 | 34 | 1013.2 |
| 20260505182503 | 83 | 173 | 3.0 | 10.0 | 0.00 | 0.00 | 0.00 | 33 | 1013.2 |
| 20260505182007 | 83 | 352 | 2.0 | 10.0 | 0.00 | 0.00 | 0.00 | 36 | 1013.4 |
| 20260505181524 | 82 | 174 | 3.0 | 9.0 | 0.00 | 0.00 | 0.00 | 35 | 1013.4 |
| 20260505181006 | 83 | 130 | 2.0 | 12.0 | 0.00 | 0.00 | 0.00 | 34 | 1013.5 |
| 20260505180510 | 83 | 180 | 2.0 | 12.0 | 0.00 | 0.00 | 0.00 | 32 | 1013.7 |
| 20260505180033 | 83 | 123 | 3.0 | 10.0 | 0.00 | 0.00 | 0.00 | 36 | 1013.5 |
| 20260505175506 | 83 | 163 | 0.0 | 7.0 | 0.00 | 0.00 | 0.00 | 35 | 1013.6 |
| 20260505175008 | 82 | 111 | 3.0 | 7.0 | 0.00 | 0.00 | 0.00 | 33 | 1013.6 |
| 20260505174531 | 83 | 208 | 2.0 | 8.0 | 0.00 | 0.00 | 0.00 | 36 | 1013.6 |
| 20260505174004 | 81 | 107 | 1.0 | 9.0 | 0.00 | 0.00 | 0.00 | 38 | 1013.7 |
| 20260505173507 | 82 | 93 | 3.0 | 10.0 | 0.00 | 0.00 | 0.00 | 34 | 1013.7 |
| 20260505173035 | 82 | 140 | 0.0 | 10.0 | 0.00 | 0.00 | 0.00 | 36 | 1013.7 |
| 20260505172503 | 81 | 244 | 3.0 | 11.0 | 0.00 | 0.00 | 0.00 | 42 | 1013.7 |
| 20260505172012 | 81 | 131 | 2.0 | 11.0 | 0.00 | 0.00 | 0.00 | 39 | 1013.9 |
| 20260505171529 | 81 | 168 | 3.0 | 10.0 | 0.00 | 0.00 | 0.00 | 39 | 1013.9 |
| 20260505171003 | 81 | 164 | 2.0 | 10.0 | 0.00 | 0.00 | 0.00 | 45 | 1013.9 |
| 20260505170510 | 81 | 61 | 2.0 | 10.0 | 0.00 | 0.00 | 0.00 | 47 | 1014.1 |
| 20260505170026 | 81 | 157 | 2.0 | 6.0 | 0.00 | 0.00 | 0.00 | 43 | 1014.1 |
| 20260505165504 | 80 | 42 | 1.0 | 8.0 | 0.00 | 0.00 | 0.00 | 46 | 1014.1 |
| 20260505165006 | 80 | 197 | 1.0 | 8.0 | 0.00 | 0.00 | 0.00 | 48 | 1014.3 |
| 20260505164533 | 80 | 132 | 3.0 | 8.0 | 0.00 | 0.00 | 0.00 | 43 | 1014.3 |
| 20260505164006 | 79 | 126 | 0.0 | 7.0 | 0.00 | 0.00 | 0.00 | 45 | 1014.4 |
| 20260505163508 | 79 | 157 | 2.0 | 7.0 | 0.00 | 0.00 | 0.00 | 46 | 1014.3 |
| 20260505163027 | 79 | 80 | 1.0 | 6.0 | 0.00 | 0.00 | 0.00 | 45 | 1014.5 |
| 20260505162507 | 78 | 125 | 2.0 | 8.0 | 0.00 | 0.00 | 0.00 | 47 | 1014.4 |
| 20260505162012 | 79 | 84 | 0.0 | 8.0 | 0.00 | 0.00 | 0.00 | 46 | 1014.5 |
| 20260505161527 | 79 | 134 | 1.0 | 8.0 | 0.00 | 0.00 | 0.00 | 49 | 1014.6 |
| 20260505161004 | 79 | 186 | 0.0 | 4.0 | 0.00 | 0.00 | 0.00 | 52 | 1014.6 |
| 20260505160508 | 78 | 157 | 1.0 | 4.0 | 0.00 | 0.00 | 0.00 | 49 | 1014.8 |
| 20260505153032 | 76 | 63 | 1.0 | 6.0 | 0.00 | 0.00 | 0.00 | 50 | 1015.1 |
| 20260505152506 | 77 | 126 | 0.0 | 7.0 | 0.00 | 0.00 | 0.00 | 50 | 1015.1 |
| 20260505152011 | 76 | 225 | 1.0 | 8.0 | 0.00 | 0.00 | 0.00 | 54 | 1015.2 |
| 20260505151528 | 75 | 159 | 3.0 | 8.0 | 0.00 | 0.00 | 0.00 | 50 | 1015.1 |
| 20260505151008 | 75 | 165 | 2.0 | 8.0 | 0.00 | 0.00 | 0.00 | 51 | 1015.0 |
| 20260505150513 | 75 | 190 | 1.0 | 6.0 | 0.00 | 0.00 | 0.00 | 54 | 1015.2 |
| 20260505140509 | 70 | 190 | 1.0 | 5.0 | 0.00 | 0.00 | 0.00 | 60 | 1015.3 |
| 20260505125005 | 63 | 146 | 0.0 | 3.0 | 0.00 | 0.00 | 0.00 | 69 | 1015.3 |
| 20260505124507 | 63 | 225 | 0.0 | 3.0 | 0.00 | 0.00 | 0.00 | 70 | 1015.2 |
| 20260505124004 | 63 | 78 | 0.0 | 5.0 | 0.00 | 0.00 | 0.00 | 71 | 1015.2 |
| 20260505123504 | 62 | 42 | 0.0 | 5.0 | 0.00 | 0.00 | 0.00 | 70 | 1015.2 |
| 20260505123008 | 62 | 192 | 0.0 | 4.0 | 0.00 | 0.00 | 0.00 | 72 | 1015.3 |
| 20260505122504 | 62 | 76 | 0.0 | 4.0 | 0.00 | 0.00 | 0.00 | 72 | 1015.3 |
| 20260505122006 | 61 | 342 | 0.0 | 4.0 | 0.00 | 0.00 | 0.00 | 74 | 1015.2 |
| 20260505121512 | 61 | 92 | 0.0 | 4.0 | 0.00 | 0.00 | 0.00 | 73 | 1015.1 |
| 20260505121001 | 61 | 360 | 0.0 | 6.0 | 0.00 | 0.00 | 0.00 | 74 | 1015.1 |
| 20260505120508 | 60 | 345 | 0.0 | 6.0 | 0.00 | 0.00 | 0.00 | 75 | 1015.0 |
| 20260505120010 | 60 | 62 | 0.0 | 3.0 | 0.00 | 0.00 | 0.00 | 74 | 1015.0 |
| 20260505115507 | 60 | 292 | 0.0 | 3.0 | 0.00 | 0.00 | 0.00 | 75 | 1015.0 |
| 20260505115005 | 60 | 200 | 0.0 | 4.0 | 0.00 | 0.00 | 0.00 | 75 | 1014.9 |
| 20260505114509 | 60 | 37 | 0.0 | 4.0 | 0.00 | 0.00 | 0.00 | 75 | 1014.8 |
| 20260505114006 | 60 | 184 | 0.0 | 5.0 | 0.00 | 0.00 | 0.00 | 76 | 1014.7 |
| 20260505113505 | 59 | 82 | 0.0 | 5.0 | 0.00 | 0.00 | 0.00 | 76 | 1014.7 |
| 20260505113010 | 59 | 132 | 0.0 | 4.0 | 0.00 | 0.00 | 0.00 | 76 | 1014.7 |
| 20260505112504 | 59 | 201 | 1.0 | 7.0 | 0.00 | 0.00 | 0.00 | 76 | 1014.5 |
| 20260505112004 | 59 | 220 | 1.0 | 9.0 | 0.00 | 0.00 | 0.00 | 75 | 1014.4 |
| 20260505111517 | 59 | 159 | 1.0 | 9.0 | 0.00 | 0.00 | 0.00 | 76 | 1014.3 |
| 20260505111005 | 59 | 179 | 2.0 | 7.0 | 0.00 | 0.00 | 0.00 | 76 | 1014.4 |
| 20260505110507 | 59 | 139 | 1.0 | 6.0 | 0.00 | 0.00 | 0.00 | 76 | 1014.3 |
| 20260505102008 | 59 | 192 | 0.0 | 5.0 | 0.00 | 0.00 | 0.00 | 76 | 1014.1 |
| 20260505101512 | 58 | 175 | 1.0 | 5.0 | 0.00 | 0.00 | 0.00 | 76 | 1014.1 |
| 20260505101005 | 58 | 147 | 0.0 | 3.0 | 0.00 | 0.00 | 0.00 | 76 | 1014.1 |
| 20260505100506 | 58 | 146 | 0.0 | 0.0 | 0.00 | 0.00 | 0.00 | 76 | 1014.1 |
| 20260505100015 | 58 | 146 | 0.0 | 0.0 | 0.00 | 0.00 | 0.00 | 75 | 1014.1 |
| 20260505095504 | 59 | 76 | 0.0 | 0.0 | 0.00 | 0.00 | 0.00 | 75 | 1014.1 |
| 20260505095004 | 59 | 78 | 0.0 | 2.0 | 0.00 | 0.00 | 0.00 | 75 | 1014.1 |
| 20260505094514 | 59 | 182 | 0.0 | 2.0 | 0.00 | 0.00 | 0.00 | 74 | 1014.2 |
| 20260505094009 | 59 | 123 | 0.0 | 2.0 | 0.00 | 0.00 | 0.00 | 74 | 1014.1 |
| 20260505093511 | 59 | 62 | 0.0 | 2.0 | 0.00 | 0.00 | 0.00 | 73 | 1014.1 |
| 20260505093015 | 59 | 116 | 0.0 | 2.0 | 0.00 | 0.00 | 0.00 | 73 | 1014.0 |
| 20260505092508 | 60 | 194 | 0.0 | 3.0 | 0.00 | 0.00 | 0.00 | 73 | 1014.0 |
| 20260505092009 | 60 | 86 | 0.0 | 6.0 | 0.00 | 0.00 | 0.00 | 73 | 1014.0 |
| 20260505091522 | 60 | 123 | 0.0 | 6.0 | 0.00 | 0.00 | 0.00 | 72 | 1014.0 |
| 20260505091007 | 60 | 188 | 1.0 | 6.0 | 0.00 | 0.00 | 0.00 | 72 | 1013.9 |
| 20260505090505 | 60 | 188 | 0.0 | 2.0 | 0.00 | 0.00 | 0.00 | 72 | 1013.9 |
| 20260505090026 | 60 | 192 | 0.0 | 3.0 | 0.00 | 0.00 | 0.00 | 71 | 1013.9 |